Showing default

LEMUR 2 THERMORAPTOR, 63354

Orbit data source: Space-Track

LEMUR 2 THERMORAPTOR, 63354 is a payload satellite owned by OroraTech (US) in SSO that was launched on Wed, 26 Mar 2025 UTC via an ELECTRON launch vehicle from the Rocket Lab Launch Complex (RLLC). Payload-class satellites include a variety of spacecraft equipped with specific instruments for various scientific and technological missions. These include communications satellites like Starlink; space stations such as the ISS; scientific satellites like the Hubble; Earth observation satellites from companies like Planet Labs, Umbra, and HawkEye 360; GPS; miniature CubeSats for education and research; and military/defense satellites.

Loading next visibility...
Identifier
63354, 2025-061D
Orbit
SSO
Last TLE update
8 hours ago
Origin
Manufacturer
Spire/Glasgow
Mission
Operational Commercial Imaging
Bus & Motor
CUBESAT 6U, Unknown motor
Mass
~15 kg wet, ~15 kg dry
Launch date (UTC)
2025-03-26 (3 months ago)
Launch vehicle
ELECTRON
Launch site
Rocket Lab Launch Complex (RLLC)
Object type
Payload
Rocket body
Debris
Shape & HBR
Box + 2 Pan, 0.4 m
Radar Cross Section
0.065 m², Medium (>0.1 m² and < 1m²)

Expand to show TLE details & history

TLE from 8 hours ago
0 LEMUR 2 THERMORAPTOR
1 63354U 25061D   25182.90447431  .00002743  00000-0  17113-3 0  9997
2 63354  97.5278 157.8555 0021449  26.2320 333.9991 15.10166869 14670
Epoch: 2025-07-01T21:42Z
TLE epoch observation values (Epoch: 2025-07-01T21:42:26.58Z)
Latitude
-0.00001°
Longitude
-87.94848°
Altitude
525.439 km
Speed
7.608 km/s
True Right ascension
10h 31m 25s
True Declination
0° 00' 00"
Sunlit
Object was in daylight at epoch
Visualization orbit readout
Latitude
-82.45279°
Longitude
9.63392°
Altitude
570.569 km
Speed
7.571 km/s
Apparent Right ascension
04h 55m 50s
Apparent Declination
-69° 59' 19"
Sunlit
Object is in full shadow
Visualization observer readout
Local Sidereal Time
16:56:56
Azimuth
179.811° S
Elevation
-59.927°
Doppler factor
1
Orbital elements
Apogee altitude
547.498 km
Perigee altitude
517.852 km
Semi-major axis
6,910.812 km
Eccentricity
0.00214
Inclination
97.5278°
RAAN
157.8555°
Arg. of periapsis
26.232°
True anomaly
Unknown
Mean anomaly
333.9991°
Eccentric anomaly
Unknown
Mean motion
3.77789 °/min
Orbital period
95.29 mins
BSTAR
0.00017113
Loading maneuver chart data...
Loading SW <> Apogee altitude chart data...
Loading historical data...
Loading historical data...
Loading historical data...
Loading historical data...
Loading historical data...
Loading historical data...
Loading historical data...

LEMUR 2 THERMORAPTOR Visibility forecast

Observer location: undefined°, undefined°

Span
Click to sort rows by Start time (UTC) header in descending order
Start Az.
Max El. time (UTC)
Max El. Az.
Max El.
End time (UTC)
End Az.
7 mins2025-07-02 10:59:24.100Z21.124° NNE2025-07-02 11:02:24.100Z70.747° E39.655°2025-07-02 11:06:24.100Z180.543° SSW
4 mins2025-07-02 21:43:24.100Z106.311° ESE2025-07-02 21:44:24.100Z82.799° E23.677°2025-07-02 21:47:24.100Z18.502° NNE
|